Location: Sternwarte ZA, Rosenfeld-Brittheim
(48.2889°N, 8.6789°E)
Time: 19:09:14
(UTC+01:00)

ISS - Pass Details

Date: 23 September 2018
Orbit: 401 x 409 km, 51.6° (Epoch: 18 November)

Event Time Altitude Azimuth Distance (km) Brightness Sun altitude
Rises 20:53:48 0° 226° (SW) 2,337 0.4 -16.0°
Reaches altitude 10° 20:55:56 10° 219° (SW) 1,478 -0.7 -16.3°
Enters shadow 20:59:04 41° 148° (SSE) 616 -3.3 -16.8°
